Lapse_Rate
6.4 6.1 6.0 6.0 6.0 5.8 5.7 5.6 5.6 5.6 5.5 5.5 5.5 5.5 5.5 5.6 5.7 5.8 5.9 6.1 6.3 6.4
6.1 6.1 6.0 5.7 5.5 5.4 5.3 5.3 5.3 5.5 5.5 5.4 5.4 5.4 5.6 5.6 5.7 5.9 6.1 6.2 6.2 6.1
6.0 5.9 5.8 5.6 5.3 5.2 4.9 4.8 5.0 5.1 5.2 5.3 5.3 5.4 5.5 5.6 5.8 6.0 6.2 6.3 6.3 6.2
6.2 6.0 5.8 5.6 5.7 5.2 4.9 5.2 4.6 5.2 5.1 5.2 5.3 5.4 5.5 5.8 6.1 6.3 6.3 6.4 6.4 6.3
6.3 6.0 5.6 5.3 5.0 4.7 5.5 4.8 5.3 5.0 5.1 5.2 5.4 5.5 5.8 6.1 6.3 6.3 6.4 6.5 6.4 6.2
6.2 6.1 5.7 5.3 4.9 4.8 5.2 5.1 5.0 5.1 5.2 5.3 5.5 5.8 6.0 6.2 6.2 6.3 6.3 6.4 6.4 6.4
6.2 6.1 5.4 5.0 5.3 5.1 4.9 4.9 5.1 5.3 5.4 5.5 5.7 5.8 6.0 6.1 6.1 6.2 6.2 6.3 6.4 6.5
5.6 5.3 5.1 5.1 5.0 4.9 4.9 5.0 5.3 5.5 5.6 5.7 5.7 5.9 6.0 6.0 6.1 6.2 6.3 6.4 6.3 5.9
5.4 5.2 5.0 4.9 4.9 4.9 5.0 5.1 5.4 5.6 5.6 5.7 5.8 5.8 5.9 6.0 6.2 6.4 6.5 6.2 5.8 5.6
5.1 4.9 4.7 4.7 4.8 5.0 5.2 5.3 5.5 5.4 5.6 5.7 5.6 5.6 5.9 6.1 6.2 6.2 5.9 5.6 5.6 5.6
4.9 4.7 4.6 4.7 4.9 5.1 5.2 5.3 5.3 5.2 5.3 5.4 5.5 5.7 6.0 6.1 6.0 5.7 5.4 5.3 5.4 5.6
4.7 4.5 4.8 4.7 5.0 5.1 4.9 4.9 5.0 5.0 5.1 5.3 5.4 5.6 5.8 5.7 5.5 5.4 5.4 5.5 5.6 5.7
4.6 4.7 4.7 4.8 4.8 4.6 4.7 4.8 4.7 4.8 5.1 5.4 5.6 5.5 5.5 5.3 5.3 5.4 5.6 5.8 5.9 5.8
4.6 4.7 4.6 4.6 4.5 4.7 4.7 4.6 4.7 5.1 5.4 5.3 5.2 5.1 5.2 5.4 5.5 5.6 5.7 5.8 5.8 5.8
Wind_Speed
10 7 7 7 6 5 5 4 8 10 11 11 11 11 10 6 5 6 5 7 5 3
8 10 9 10 9 6 6 7 9 11 10 11 12 12 10 3 5 5 5 5 5 4
10 10 10 9 9 8 7 9 8 8 10 10 11 10 9 4 7 6 4 4 6 5
11 10 10 10 4 8 8 8 7 8 7 6 6 9 6 6 6 6 5 4 4 5
11 10 10 9 7 11 6 11 8 9 6 5 6 7 6 5 5 5 5 5 5 5
10 9 8 8 7 8 7 7 8 8 6 5 5 5 5 5 5 5 5 5 6 6
9 9 7 7 6 6 8 6 6 7 6 5 5 5 4 3 4 5 5 6 5 6
7 7 7 7 6 6 6 6 7 5 6 6 4 2 3 3 5 5 6 6 5 6
7 7 6 6 6 6 6 6 5 6 5 5 2 7 9 9 5 4 5 6 6 7
7 7 6 6 6 6 6 5 5 5 5 4 5 11 12 11 3 4 5 6 6 7
7 7 6 6 6 5 4 5 4 5 5 5 5 11 11 12 4 4 5 6 6 7
6 7 6 6 6 4 4 4 4 3 5 6 5 13 14 12 5 4 5 6 7 7
6 6 6 5 5 3 3 3 3 4 5 7 6 13 15 14 5 6 6 5 7 15
6 6 5 5 4 3 4 4 4 4 4 5 7 8 16 19 7 6 7 8 8 8
Wind_Direction
116 125 125 127 123 116 113 101 96 90 83 73 65 55 51 45 36 33 31 25 18 360
99 108 111 106 101 109 107 103 90 86 81 69 60 52 53 44 35 41 27 29 18 13
105 102 106 102 108 98 91 89 86 79 75 66 58 54 51 45 31 32 12 16 10 2
106 102 99 96 101 94 93 89 78 79 75 68 57 47 52 37 30 20 4 352 2 357
105 104 102 99 94 91 90 81 84 79 75 66 58 57 59 42 18 9 355 346 358 349
101 98 96 94 90 89 85 84 76 77 70 59 55 81 58 45 15 357 345 345 346 329
103 104 100 95 89 90 87 79 71 68 67 53 76 77 55 36 6 357 350 334 323 314
105 103 103 97 91 84 76 75 76 70 59 42 56 83 35 19 12 359 337 317 309 311
104 98 94 93 93 83 71 67 62 54 50 40 2 7 12 8 352 336 317 310 310 302
111 104 96 90 81 75 71 69 59 46 37 19 355 6 0 348 344 329 309 302 303 312
105 102 98 93 85 73 62 52 41 27 14 6 348 350 349 353 348 308 300 293 293 290
108 106 102 94 85 66 61 49 28 13 3 354 333 347 353 358 329 305 295 288 286 292
105 104 95 90 82 62 54 40 20 8 4 344 343 351 351 348 333 319 313 303 311 311
103 100 95 86 77 61 49 34 20 11 354 354 353 341 345 343 333 325 332 319 317 311